TimePST,TemperatureF,Dew PointF,Humidity,Sea Level PressureIn,VisibilityMPH,Wind Direction,Wind SpeedMPH,Gust SpeedMPH,PrecipitationIn,Events,Conditions,WindDirDegrees,DateUTC
12:53 AM,30.9,25.0,79,30.22,10.0,North,8.1,-,N/A,,Clear,350,2013-02-27 08:53:00
1:53 AM,28.0,24.1,85,30.22,10.0,North,3.5,-,N/A,,Partly Cloudy,350,2013-02-27 09:53:00
2:53 AM,27.0,23.0,85,30.20,10.0,NNW,4.6,-,N/A,,Clear,330,2013-02-27 10:53:00
3:53 AM,27.0,23.0,85,30.20,10.0,North,5.8,-,N/A,,Clear,10,2013-02-27 11:53:00
4:53 AM,25.0,21.9,88,30.22,10.0,North,6.9,-,N/A,,Scattered Clouds,350,2013-02-27 12:53:00
5:53 AM,26.1,23.0,88,30.23,10.0,Calm,Calm,-,N/A,,Scattered Clouds,0,2013-02-27 13:53:00
7:53 AM,32.0,27.0,82,30.27,10.0,NNW,4.6,-,N/A,,Partly Cloudy,340,2013-02-27 15:53:00
8:53 AM,35.1,28.0,76,30.30,10.0,NE,3.5,-,N/A,,Clear,40,2013-02-27 16:53:00
9:53 AM,36.0,27.0,70,30.30,10.0,Calm,Calm,-,N/A,,Clear,0,2013-02-27 17:53:00
10:53 AM,41.0,28.0,60,30.29,10.0,Calm,Calm,-,N/A,,Clear,0,2013-02-27 18:53:00
11:53 AM,45.0,28.9,53,30.28,10.0,Calm,Calm,-,N/A,,Clear,0,2013-02-27 19:53:00
12:53 PM,48.0,28.9,48,30.27,10.0,SSE,11.5,-,N/A,,Clear,160,2013-02-27 20:53:00
1:53 PM,46.9,28.9,50,30.27,10.0,SE,5.8,-,N/A,,Clear,140,2013-02-27 21:53:00
2:53 PM,48.0,27.0,44,30.26,10.0,Calm,Calm,-,N/A,,Clear,0,2013-02-27 22:53:00
3:53 PM,46.9,27.0,46,30.25,10.0,SE,3.5,-,N/A,,Scattered Clouds,140,2013-02-27 23:53:00
4:53 PM,46.0,28.9,51,30.26,10.0,Calm,Calm,-,N/A,,Mostly Cloudy,0,2013-02-28 00:53:00
5:53 PM,44.1,28.9,55,30.25,10.0,Calm,Calm,-,N/A,,Partly Cloudy,0,2013-02-28 01:53:00
6:53 PM,41.0,28.9,62,30.23,10.0,Calm,Calm,-,N/A,,Partly Cloudy,0,2013-02-28 02:53:00
7:53 PM,42.1,28.9,60,30.24,10.0,North,3.5,-,N/A,,Clear,360,2013-02-28 03:53:00
8:53 PM,41.0,30.0,65,30.26,10.0,North,4.6,-,N/A,,Overcast,350,2013-02-28 04:53:00
9:53 PM,41.0,30.0,65,30.25,10.0,NNE,6.9,-,N/A,,Overcast,30,2013-02-28 05:53:00
10:53 PM,39.0,30.0,70,30.25,10.0,NNW,4.6,-,N/A,,Partly Cloudy,340,2013-02-28 06:53:00
11:53 PM,39.0,30.0,70,30.25,10.0,North,6.9,-,N/A,,Overcast,10,2013-02-28 07:53:00